User: anonymous   Login
Location: Gloden
(48.4833°N, 15.3167°E)
Time: 01:07:57
(UTC+00:00)
Language:

Cosmos 405 - Orbit

View from above orbital plane
View from above orbital plane
View from above satellite
View from above satellite

Ground track
Ground track

The orbit data is extracted from the following two-line orbital elements,

1  5117U 71028A   20047.50274664 +.00000959 +00000-0 +26702-4 0  9993
2  5117 081.2617 284.4512 0010865 029.0172 039.8215 15.35681121661912
Epoch (UTC): 16 February 2020 12:03:57
Eccentricity: 0.0010865
inclination: 81.2617°
perigee height: 451 km
apogee height: 466 km
right ascension of ascending node: 284.4512°
argument of perigee: 29.0172°
revolutions per day: 15.35681121
mean anomaly at epoch: 39.8215°
orbit number at epoch: 66191

The dashed part of the orbit path shows where the satellite is in the earth's shadow,  

DLR